This demonstration page uses our WeatherBlox Daily Observations layout. Learn more.

Left ArrowRight Arrow

39.29038, -76.61219

Hourly Observations for May 6, 2021

Temp ( °F °C ) Dew Point ( °F °C ) Humidity (%) Winds ( mph kmh ) Pressure ( in mb ) Visibility ( mi km ) Precip ( " mm )
12:54 am 00:54 Partly Cloudy 56 13.3 34 1.1 44 44 NW 15 24 29.96 1015 10 16 N/A
1:54 am 01:54 Mostly Clear 53 11.7 34 1.1 48 48 NW 12 19 29.96 1015 10 16 N/A
2:54 am 02:54 Mostly Clear 52 11.1 32 undefined 47 47 NW 10 17 29.98 1015 10 16 N/A
3:54 am 03:54 Mostly Clear 50 10 31 -0.6 48 48 WNW 9 15 29.99 1016 10 16 N/A
4:54 am 04:54 Clear 48 8.9 32 undefined 54 54 WNW 8 13 30.00 1016 10 16 N/A
5:54 am 05:54 Clear 45 7.2 33 0.6 63 63 W 8 13 30.02 1017 10 16 N/A
6:54 am 06:54 Mostly Sunny 49 9.4 33 0.6 55 55 WNW 10 17 30.04 1017 10 16 N/A
7:54 am 07:54 Mostly Sunny 53 11.7 35 1.7 51 51 NW 7 11 30.05 1018 10 16 N/A
8:54 am 08:54 Mostly Sunny 56 13.3 36 2.2 47 47 NNW 10 17 30.05 1018 10 16 N/A
9:54 am 09:54 Partly Cloudy 57 13.9 35 1.7 44 44 NNW 8 13 30.06 1018 10 16 N/A
10:54 am 10:54 Partly Cloudy 60 15.6 37 2.8 42 42 WNW 12 19 30.05 1018 10 16 N/A
11:54 am 11:54 Mostly Cloudy 61 16.1 37 2.8 41 41 WNW 12 19 30.03 1017 10 16 N/A
12:54 pm 12:54 Mostly Cloudy 63 17.2 38 3.3 40 40 VRB 7 11 30.01 1016 10 16 N/A
1:54 pm 13:54 Mostly Cloudy 65 18.3 37 2.8 36 36 W 8 13 29.99 1016 10 16 N/A
2:54 pm 14:54 Mostly Cloudy 65 18.3 36 2.2 34 34 WNW 3 6 29.96 1015 10 16 N/A
3:54 pm 15:54 Mostly Cloudy 65 18.3 36 2.2 34 34 WNW 7 11 29.95 1014 10 16 N/A
4:54 pm 16:54 Mostly Cloudy 65 18.3 35 1.7 33 33 VRB 3 6 29.94 1014 10 16 N/A
5:54 pm 17:54 Mostly Cloudy 63 17.2 37 2.8 38 38 NW 7 11 29.94 1014 10 16 N/A
6:54 pm 18:54 Mostly Cloudy 63 17.2 38 3.3 40 40 W 5 7 29.94 1014 10 16 N/A
7:54 pm 19:54 Mostly Cloudy 61 16.1 37 2.8 41 41 N N/A 29.95 1014 10 16 N/A
8:54 pm 20:54 Mostly Cloudy 59 15 39 3.9 48 48 SSW 3 6 29.96 1015 10 16 N/A
9:54 pm 21:54 Partly Cloudy 55 12.8 41 5 59 59 N N/A 29.96 1015 10 16 N/A
10:54 pm 22:54 Mostly Clear 54 12.2 41 5 62 62 N N/A 29.96 1015 10 16 N/A
11:54 pm 23:54 Mostly Cloudy 50 10 42 5.6 74 74 N N/A 29.95 1014 10 16 N/A

Powered by AerisWeather